Miscellaneous Local Product
Issued by NWS North Platte, NE

Home | Current Version | Previous Version | Text Only | Print | Product List | Glossary On
Versions: 1 2 3 4 5 6 7 8 9 10 11 12 13 14 15 16 17 18 19 20 21 22 23 24 25 26 27 28 29 30 31 32 33 34 35 36 37 38 39 40 41 42 43 44 45 46 47 48 49 50
000
AXUS43 KLBF 172010
MISLBF


WESTERN AND NORTH CENTRAL NEBRASKA HOURLY WEATHER ROUNDUP
NATIONAL WEATHER SERVICE NORTH PLATTE NE
200 PM CST WED DEC 17 2014

***STATIONS NOT REPORTING VARIABLES SUCH AS SKY/WEATHER OR
PRESSURE ARE PROVIDED BY THE NEBRASKA DEPARTMENT OF
ROADS...RAWS...AND APRS NETWORKS...AND ARE NOT UNDER
NATIONAL WEATHER SERVICE QUALITY CONTROL***

...OBSERVATIONS IN AND NEAR THE EASTERN PANHANDLE OF NEBRASKA...

CITY           SKY/WX    TMP DP  RH WIND       PRES   REMARKS
PINE RIDGE     PTSUNNY   26  20  77 S12       29.98F WCI  16
CHADRON        MOSUNNY   28  19  69 CALM      29.97F
ALLIANCE       CLOUDY    24  21  88 S14       29.96F WCI  12
SIDNEY         FOG       22  19  89 S10       29.97F VSB 3/4 WCI  11
WHITECLAY        N/A     24  19  81 S12         N/A  WCI  13
CRESCENT LAKE    N/A     22  20  91 S6          N/A  WCI  15
LISCO            N/A     27  22  82 SE10        N/A  WCI  17
BIG SPRINGS      N/A     24  22  93 S7          N/A  WCI  16
$$

...OBSERVATIONS IN NORTH CENTRAL NEBRASKA...

CITY           SKY/WX    TMP DP  RH WIND       PRES   REMARKS
VALENTINE      CLOUDY    22  19  89 S13       30.10F WCI  10
THEDFORD       CLOUDY    23  22  95 S9        30.10F FOG     WCI  13
AINSWORTH      CLOUDY    20  19  96 S7        30.11F WCI  11
O`NEILL        CLOUDY    19  19  96 SE5       30.19F WCI  13
ORD            CLOUDY    21  18  88 S5        30.18F WCI  15
BROKEN BOW     CLOUDY    22  21  96 S9        30.14F FOG     WCI  12
BROWNLEE         N/A     20  18  91 CALM        N/A
SPRINGVIEW       N/A     20  17  86 SE6         N/A  WCI  12
BREWSTER         N/A     24  23  97 S9          N/A  WCI  14
ROSE             N/A     24  24 100 MISG        N/A
SARGENT          N/A     20  19  93 S3          N/A
COMSTOCK         N/A     27  24  88 S5          N/A  WCI  22
CHAMBERS         N/A     26  18  72 CALM        N/A
$$

...OBSERVATIONS IN SOUTHWEST NEBRASKA AND FAR NORTHEAST COLORADO...

CITY           SKY/WX    TMP DP  RH WIND       PRES   REMARKS
WRAY           CLOUDY    25  24  99 MISG      30.02F
IMPERIAL       CLOUDY    23  20  88 S7        30.05F WCI  15
OGALLALA       CLOUDY    22  21  96 S9        30.06F WCI  12
NORTH PLATTE   CLOUDY    22  20  92 SE7       30.10F WCI  13
MCCOOK         CLOUDY    23  21  92 E9        30.11F FOG     WCI  13
LEXINGTON      CLOUDY    22  21  94 SE6       30.15F FOG     WCI  15
PAXTON           N/A     23  22  94 S8          N/A  WCI  14
BRADY            N/A     22  20  90 CALM        N/A
GOTHENBURG       N/A     23  22  94 SE5         N/A  WCI  17
CALLAWAY         N/A     21  20  96 SE9         N/A  WCI  11
$$

...NORTH PLATTE AREA...

CITY           SKY/WX    TMP DP  RH WIND       PRES   REMARKS
AIRPORT        CLOUDY    22  20  92 SE7       30.10F WCI  13
DOWNTOWN         N/A     22  20  92 S6          N/A  WCI  15
$$

...SOME WEATHER OBSERVATIONS FROM AROUND THE REGION...

CITY           SKY/WX    TMP DP  RH WIND       PRES   REMARKS
DENVER         PTSUNNY   37  25  61 CALM      29.90F
LARAMIE        PTSUNNY   34  21  59 W7        29.90F WCI  28
CHEYENNE       PTSUNNY   46  21  37 S7        29.88F
SCOTTSBLUFF    MOSUNNY   22  19  89 E10       29.95F WCI  11
RAPID CITY     CLOUDY    23  20  88 E6        29.98F WCI  16
PIERRE         CLOUDY    17  14  88 SE16      30.17F WCI   2
SIOUX FALLS    PTSUNNY   18  10  71 NE5       30.26F WCI  11
OMAHA          PTSUNNY   27  15  61 CALM      30.30F
GRAND ISLAND   CLOUDY    24  19  81 SE6       30.20F WCI  17
KANSAS CITY    CLOUDY    28  19  69 CALM      30.27F
WICHITA        CLOUDY    33  24  69 E10       30.16F WCI  25
HAYS           CLOUDY    32  19  59 E13       30.11F WCI  22
LIBERAL        CLOUDY    43  28  56 S15       29.98F
GOODLAND       FOG       24  23  96 E8        30.01F VSB 1/4 WCI  15
$$



USA.gov is the U.S. government's official web portal to all federal, state and local government web resources and services.